Date String (YYYY-MM-DD hh:mm:ss) UTC,Instrument flags,absolute air pressure of the measurement (hPa),sample flow rate (lpm),inlet stack bypass flow (lpm),air temperature of the measurement (°C),ambient temperature measured by the external sensor (°C),aerosol sample conditioner tube jacket temperature (°C),OPC LED temperature (°C),internal box temperature (°C),relative humidity of the measurement (%),span deviation,mass concentration of particles derived from Lorenz-Mie calculation of OPC scattering (μg/m³),mass concentration of particles derived from Lorenz-Mie calculation of OPC scattering (μg/m³),mass concentration of particles derived from Lorenz-Mie calculation of OPC scattering (μg/m³)
DateTimeUTC,F1_M11,P_M11,Q1_M11,Q2_M11,T1_M11,T2_M11,T3_M11,T4_M11,T5_M11,U1_M11,ZSPAN_M11,X0_M11,X2_M11,X1_M11
2024-01-18 20:00:00,SystemResetWarning,0829.6,4.99,000.00,019.8,019.2,000.0,028.1,021.0,14.1,0000.0,0008.16,0001.72,0000.92
2024-01-18 20:01:00,SystemResetWarning,0829.6,4.99,000.00,019.8,019.2,000.0,028.1,021.0,14.0,0000.0,0008.13,0001.66,0000.92
2024-01-18 20:02:00,SystemResetWarning,0829.5,5.00,000.00,019.8,019.1,000.0,028.1,021.0,13.9,0000.0,0008.00,0001.73,0000.93
2024-01-18 20:03:00,SystemResetWarning,0829.4,5.01,000.00,019.8,019.1,000.0,028.1,021.0,14.1,0000.0,0008.12,0001.73,0000.93
2024-01-18 20:04:00,SystemResetWarning,0829.6,5.01,000.00,019.8,019.1,000.0,028.1,021.0,14.3,0000.0,0008.58,0001.69,0000.93
2024-01-18 20:05:00,SystemResetWarning,0829.7,5.00,000.00,019.8,019.1,000.0,028.1,021.0,14.3,0000.0,0007.87,0001.69,0000.93
2024-01-18 20:06:00,SystemResetWarning,0829.8,4.99,000.00,019.8,019.1,000.0,028.1,021.0,14.2,0000.0,0007.79,0001.75,0000.94
2024-01-18 20:07:00,SystemResetWarning,0829.8,5.00,000.00,019.8,019.1,000.0,028.1,020.9,14.4,0000.0,0008.40,0001.81,0000.94
2024-01-18 20:08:00,SystemResetWarning,0829.7,5.00,000.00,019.8,019.1,000.0,028.1,020.9,14.4,0000.0,0008.36,0001.85,0000.94
2024-01-18 20:09:00,SystemResetWarning,0829.7,5.00,000.00,019.7,019.1,000.0,028.1,020.9,14.4,0000.0,0008.48,0001.80,0000.94
2024-01-18 20:10:00,SystemResetWarning,0829.7,5.00,000.00,019.7,019.1,000.0,028.1,020.9,14.2,0000.0,0008.40,0001.79,0000.92
2024-01-18 20:11:00,SystemResetWarning,0829.7,4.99,000.00,019.7,019.1,000.0,028.1,020.9,14.2,0000.0,0008.66,0001.81,0000.93
2024-01-18 20:12:00,SystemResetWarning,0829.7,5.00,000.00,019.7,019.0,000.0,028.1,020.9,14.0,0000.0,0008.91,0001.83,0000.95
2024-01-18 20:13:00,SystemResetWarning,0829.7,5.00,000.00,019.7,019.0,000.0,028.1,020.9,14.0,0000.0,0009.80,0001.78,0000.95
2024-01-18 20:14:00,SystemResetWarning,0829.7,5.00,000.00,019.7,019.0,000.0,028.1,020.9,14.0,0000.0,0009.99,0001.73,0000.96
2024-01-18 20:15:00,SystemResetWarning,0829.7,5.00,000.00,019.7,019.0,000.0,028.1,020.9,14.0,0000.0,0009.83,0001.82,0000.97
2024-01-18 20:16:00,SystemResetWarning,0829.7,4.99,000.00,019.7,019.0,000.0,028.1,020.9,13.8,0000.0,0010.08,0001.92,0000.99
2024-01-18 20:17:00,SystemResetWarning,0829.7,5.00,000.00,019.7,019.0,000.0,028.1,020.8,13.7,0000.0,0011.16,0001.96,0000.99
2024-01-18 20:18:00,SystemResetWarning,0829.6,5.01,000.00,019.7,019.0,000.0,028.1,020.9,13.7,0000.0,0011.07,0002.02,0001.00
2024-01-18 20:19:00,SystemResetWarning,0829.6,5.01,000.00,019.7,019.0,000.0,028.1,020.9,13.9,0000.0,0011.65,0002.10,0001.01
2024-01-18 20:20:00,SystemResetWarning,0829.7,5.01,000.00,019.7,019.0,000.0,028.1,020.9,13.9,0000.0,0012.20,0002.15,0001.01
2024-01-18 20:21:00,SystemResetWarning,0829.7,5.00,000.00,019.7,018.9,000.0,028.0,020.8,13.9,0000.0,0013.75,0002.19,0001.02
2024-01-18 20:22:00,SystemResetWarning,0829.7,4.99,000.00,019.7,018.9,000.0,028.0,020.8,14.0,0000.0,0013.74,0002.24,0001.03
2024-01-18 20:23:00,SystemResetWarning,0829.7,5.00,000.00,019.7,018.9,000.0,028.0,020.8,14.0,0000.0,0013.45,0002.22,0001.02
2024-01-18 20:24:00,SystemResetWarning,0829.8,5.00,000.00,019.6,018.9,000.0,028.0,020.8,13.9,0000.0,0012.41,0002.22,0001.02
2024-01-18 20:25:00,SystemResetWarning,0829.8,5.00,000.00,019.6,018.8,000.0,028.0,020.8,13.8,0000.0,0012.35,0002.31,0001.02
2024-01-18 20:26:00,SystemResetWarning,0829.8,5.01,000.00,019.6,018.8,000.0,028.0,020.7,13.8,0000.0,0012.51,0002.37,0001.02
2024-01-18 20:27:00,SystemResetWarning,0829.7,5.01,000.00,019.6,018.8,000.0,028.0,020.6,13.7,0000.0,0012.87,0002.31,0001.02
2024-01-18 20:28:00,SystemResetWarning,0829.7,5.00,000.00,019.6,018.7,000.0,028.0,020.6,13.8,0000.0,0011.63,0002.27,0001.02
2024-01-18 20:29:00,SystemResetWarning,0829.8,5.00,000.00,019.5,018.7,000.0,028.0,020.6,14.0,0000.0,0011.07,0002.18,0001.01
2024-01-18 20:30:00,SystemResetWarning,0830.0,5.00,000.00,019.5,018.7,000.0,028.0,020.6,13.8,0000.0,0010.66,0002.01,0001.00
2024-01-18 20:31:00,SystemResetWarning,0830.0,4.99,000.00,019.5,018.7,000.0,028.0,020.6,13.8,0000.0,0010.57,0001.99,0001.01
2024-01-18 20:32:00,SystemResetWarning,0829.8,5.00,000.00,019.5,018.6,000.0,028.0,020.5,13.9,0000.0,0008.96,0001.97,0001.01
2024-01-18 20:33:00,SystemResetWarning,0829.8,5.01,000.00,019.5,018.6,000.0,027.9,020.5,14.0,0000.0,0008.84,0001.93,0001.00
2024-01-18 20:34:00,SystemResetWarning,0829.8,5.01,000.00,019.5,018.6,000.0,027.9,020.5,14.0,0000.0,0009.02,0001.94,0000.99
2024-01-18 20:35:00,SystemResetWarning,0829.9,5.00,000.00,019.4,018.6,000.0,027.9,020.4,14.1,0000.0,0009.85,0001.98,0000.99
2024-01-18 20:36:00,SystemResetWarning,0829.9,5.00,000.00,019.4,018.6,000.0,027.9,020.4,14.3,0000.0,0009.15,0001.87,0000.99
2024-01-18 20:37:00,SystemResetWarning,0829.9,4.99,000.00,019.4,018.5,000.0,027.9,020.4,14.3,0000.0,0008.43,0001.73,0000.98
2024-01-18 20:38:00,SystemResetWarning,0830.0,4.99,000.00,019.4,018.5,000.0,027.8,020.3,14.2,0000.0,0007.98,0001.74,0000.98
2024-01-18 20:39:00,SystemResetWarning,0829.9,4.99,000.00,019.3,018.5,000.0,027.8,020.3,14.3,0000.0,0007.88,0001.71,0000.98
2024-01-18 20:40:00,SystemResetWarning,0829.9,5.00,000.00,019.3,018.5,000.0,027.8,020.3,14.4,0000.0,0008.16,0001.73,0000.98
2024-01-18 20:41:00,SystemResetWarning,0829.9,5.00,000.00,019.3,018.4,000.0,027.8,020.3,14.3,0000.0,0008.35,0001.78,0000.99
2024-01-18 20:42:00,SystemResetWarning,0829.9,5.00,000.00,019.3,018.4,000.0,027.8,020.3,14.2,0000.0,0008.35,0001.75,0000.99
2024-01-18 20:43:00,SystemResetWarning,0829.8,5.00,000.00,019.3,018.4,000.0,027.8,020.2,14.4,0000.0,0008.29,0001.75,0001.01
2024-01-18 20:44:00,SystemResetWarning,0829.9,5.00,000.00,019.2,018.4,000.0,027.8,020.2,14.3,0000.0,0008.20,0001.77,0001.02
2024-01-18 20:45:00,SystemResetWarning,0829.9,5.00,000.00,019.2,018.4,000.0,027.7,020.2,14.2,0000.0,0008.26,0001.80,0001.04
2024-01-18 20:46:00,SystemResetWarning,0829.8,5.00,000.00,019.2,018.3,000.0,027.7,020.2,14.1,0000.0,0007.42,0001.82,0001.04
2024-01-18 20:47:00,SystemResetWarning,0829.8,5.00,000.00,019.2,018.3,000.0,027.7,020.2,14.2,0000.0,0007.38,0001.84,0001.05
2024-01-18 20:48:00,SystemResetWarning,0829.9,5.00,000.00,019.2,018.3,000.0,027.7,020.2,14.3,0000.0,0007.87,0001.83,0001.05
2024-01-18 20:49:00,SystemResetWarning,0830.0,5.00,000.00,019.2,018.3,000.0,027.7,020.2,14.5,0000.0,0008.04,0001.77,0001.05
2024-01-18 20:50:00,SystemResetWarning,0830.0,5.00,000.00,019.2,018.3,000.0,027.7,020.2,14.5,0000.0,0008.35,0001.78,0001.06
2024-01-18 20:51:00,SystemResetWarning,0830.1,5.00,000.00,019.2,018.3,000.0,027.6,020.2,14.3,0000.0,0008.15,0001.74,0001.06
2024-01-18 20:52:00,SystemResetWarning,0830.1,5.00,000.00,019.1,018.3,000.0,027.6,020.2,14.3,0000.0,0007.92,0001.73,0001.05
2024-01-18 20:53:00,SystemResetWarning,0830.1,5.00,000.00,019.1,018.3,000.0,027.6,020.2,14.2,0000.0,0007.70,0001.74,0001.05
2024-01-18 20:54:00,SystemResetWarning,0830.1,5.00,000.00,019.2,018.4,000.0,027.6,020.2,14.1,0000.0,0007.68,0001.76,0001.05
2024-01-18 20:55:00,SystemResetWarning,0830.1,5.00,000.00,019.2,018.3,000.0,027.6,020.2,14.1,0000.0,0007.47,0001.79,0001.04
2024-01-18 20:56:00,SystemResetWarning,0830.2,5.00,000.00,019.1,018.3,000.0,027.6,020.2,14.0,0000.0,0008.00,0001.80,0001.04
2024-01-18 20:57:00,SystemResetWarning,0830.2,5.00,000.00,019.1,018.3,000.0,027.6,020.1,14.2,0000.0,0008.34,0001.75,0001.04
2024-01-18 20:58:00,SystemResetWarning,0830.2,5.00,000.00,019.1,018.3,000.0,027.6,020.1,14.2,0000.0,0008.38,0001.73,0001.05
2024-01-18 20:59:00,SystemResetWarning,0830.2,5.00,000.00,019.1,018.3,000.0,027.6,020.1,14.1,0000.0,0008.05,0001.75,0001.07
